Location: Chaumontel
(49.1247°N, 2.4324°E)
Time: 13:25:24
(UTC+00:00)

Cosmos 2266 Rocket - Pass Details

Date: 03 February 2023
Orbit: 933 x 1008 km, 82.9° (Epoch: 22 March)

Event Time Altitude Azimuth Distance (km) Brightness Sun altitude
Rises 17:35:48 0° 349° (NNW) 3,717 7.0 -7.9°
Reaches altitude 10° 17:38:22 10° 347° (NNW) 2,755 6.3 -8.3°
Maximum altitude 17:44:38 73° 265° (W) 1,020 4.3 -9.3°
Drops below altitude 10° 17:50:45 10° 182° (S) 2,683 6.5 -10.2°
Sets 17:53:13 0° 180° (S) 3,615 7.2 -10.6°
